Kiana, AK

6:15 PM AKDT on April 25, 2018 (GMT -0800)
Baker Memorial

Weather History for PAIK - June, 2013

Change the Weather History Date:

Tuesday, June 25, 2013

  Actual Average (PASK) Record (PASK)
Temperature  
Mean Temperature 68 °F -  
Max Temperature 69 °F 60 °F 73 °F (2011)
Min Temperature 55 °F 47 °F 41 °F (2002)
Cooling Degree Days 2    
Growing Degree Days 18 (Base 50)    
Moisture  
Dew Point 45 °F    
Average Humidity 44    
Maximum Humidity 77    
Minimum Humidity 26    
Precipitation  
Precipitation 0.00 in - - ()
Sea Level Pressure  
Sea Level Pressure 29.89 in    
Wind  
Wind Speed 6 mph (NNW)    
Max Wind Speed 9 mph    
Max Gust Speed -    
Visibility 10 miles    
Events      
Averages and records for this station are not official NWS values.
T = Trace of Precipitation, MM = Missing Value Source: NWS Daily Summary

Daily Weather History Graph

Daily Weather History Graph

Search for Another Location

Airport or City:

Astronomy

Jun. 25, 2013 Rise Set
Actual Time 3:16 AM AKDT 2:12 AM AKDT
Civil Twilight Sun does not set Sun does not set
Nautical Twilight Sun does not set Sun does not set
Astronomical Twilight Sun does not set Sun does not set
Moon 1:15 AM AKDT (6/25) 8:27 AM AKDT (6/25)
Length of Visible Light 24h 00m
Length of Day
22h 55m
Waning Gibbous, 92% of the Moon is Illuminated
Jun 25
Waning Gibbous
Jun 29
Last Quarter
Jul 7
New
Jul 15
First Quarter
Jul 22
Full

Hourly Weather History & Observations

Time (AKDT) Temp. Dew Point Humidity Pressure Visibility Wind Dir Wind Speed Gust Speed Precip Events Conditions
12:01 AM 68.0 °F 43.0 °F 40% 29.90 in 10.0 mi NNE 8.1 mph - N/A   Clear
1:01 AM 64.9 °F 42.1 °F 43% 29.90 in 10.0 mi NNW 8.1 mph - N/A   Clear
2:01 AM 63.0 °F 44.1 °F 50% 29.92 in 10.0 mi NNW 8.1 mph - N/A   Clear
3:01 AM 61.0 °F 44.1 °F 54% 29.92 in 10.0 mi North 9.2 mph - N/A   Clear
4:01 AM 59.0 °F 45.0 °F 60% 29.92 in 10.0 mi NNW 6.9 mph - N/A   Clear
5:01 AM 55.0 °F 48.0 °F 77% 29.93 in 10.0 mi Calm Calm - N/A   Clear
6:01 AM 55.9 °F 48.0 °F 75% 29.92 in 10.0 mi Calm Calm - N/A   Clear
7:01 AM 57.9 °F 48.9 °F 72% 29.92 in 10.0 mi North 3.5 mph - N/A   Clear
8:01 AM 64.0 °F 44.1 °F 48% 29.92 in 10.0 mi North 9.2 mph - N/A   Clear
9:01 AM 64.9 °F 44.1 °F 47% 29.93 in 10.0 mi North 9.2 mph - N/A   Clear
10:01 AM 66.9 °F 45.0 °F 45% 29.92 in 10.0 mi North 5.8 mph - N/A   Clear
11:01 AM 69.1 °F 45.0 °F 42% 29.91 in 10.0 mi NNE 6.9 mph - N/A   Clear
12:01 PM 71.1 °F 44.1 °F 38% 29.91 in 10.0 mi Calm Calm - N/A   Clear
1:01 PM 73.9 °F 43.0 °F 33% 29.91 in 10.0 mi Variable 3.5 mph - N/A   Clear
2:01 PM 75.0 °F 45.0 °F 34% 29.90 in 10.0 mi Calm Calm - N/A   Clear
3:01 PM 78.1 °F 41.0 °F 27% 29.89 in 10.0 mi Calm Calm - N/A   Clear
4:01 PM 78.8 °F 42.8 °F 28% 29.76 in 10.0 mi East 4.6 mph - N/A   Partly Cloudy
5:01 PM 79.0 °F 43.0 °F 28% 29.87 in 9.0 mi Calm Calm - N/A   Clear
6:01 PM 80.1 °F 42.1 °F 26% 29.87 in 10.0 mi SSW 4.6 mph - N/A   Clear
7:01 PM 79.0 °F 48.0 °F 34% 29.86 in 10.0 mi WSW 8.1 mph - N/A   Clear
8:01 PM 79.0 °F 48.0 °F 34% 29.86 in 10.0 mi West 6.9 mph - N/A   Clear
9:01 PM 77.0 °F 51.1 °F 40% 29.86 in 10.0 mi West 4.6 mph - N/A   Clear
10:01 PM 77.0 °F 50.0 °F 39% 29.85 in 10.0 mi West 3.5 mph - N/A   Clear
11:01 PM 73.9 °F 51.1 °F 45% 29.86 in 10.0 mi Calm Calm - N/A   Clear